Hourly Weather Roundup
Issued by NWS Central Illinois

Home | Current Version | Previous Version | Text Only | Print | Product List | Glossary On
Versions: 1 2 3 4 5 6 7 8 9 10 11 12 13 14 15 16 17 18 19 20 21 22 23 24 25 26 27 28 29 30 31 32 33 34 35 36 37 38 39 40 41 42 43 44 45 46 47 48 49 50
000
NZUS43 KILX 260310
HWRILX

AREA WEATHER ROUNDUP
NATIONAL WEATHER SERVICE, LINCOLN IL
1000 PM CDT FRI JUL 25 2014


CITY           SKY/WX    TMP DP  RH WIND       PRES   REMARKS
BLOOMINGTON    MOCLDY    66  59  78 SE10      29.96S
CHAMPAIGN      CLOUDY    67  62  84 SE7       29.97S
DECATUR        CLOUDY    68  62  81 SE8       29.96R
FLORA          CLEAR     62  61  96 CALM      29.98S
GALESBURG      CLOUDY    69  64  83 SE8       29.89R
JACKSONVILLE   MOCLDY    72  63  75 SE10      29.91S
LACON          CLOUDY    67  60  76 SE10      29.91F
LAWRENCEVILLE  CLEAR     66  62  87 E5        29.99R
LITCHFIELD     CLEAR     66  62  85 E8        29.94S
$$


CITY           SKY/WX    TMP DP  RH WIND       PRES   REMARKS
LINCOLN        CLOUDY    69  63  79 SE7       29.91S
MACOMB         CLOUDY    69  62  78 SE9       29.90S
MATTOON        MOCLDY    64  61  90 SE6       29.98R
MT CARMEL AP   CLEAR     64  63  94 CALM      29.99R
OLNEY-NOBLE AP CLEAR     63  61  94 CALM      29.99R
PARIS          MOCLDY    62  61  96 CALM      29.99F
PEORIA         CLOUDY    70  61  73 SE10      29.92R
PONTIAC        CLOUDY    70  63  78 SE6       29.94S
RANTOUL        PTCLDY    68  62  79 SE5       29.98S
ROBINSON       CLEAR     64  62  94 CALM      30.00R
SPRINGFIELD    CLOUDY    70  63  78 SE14      29.92S
TAYLORVILLE    CLOUDY    66  61  82 SE10      29.95S
$$

...REGIONAL REPORTS...


CITY           SKY/WX    TMP DP  RH WIND       PRES   REMARKS
CHICAGO O`HARE CLOUDY    71  57  61 SW7       29.93S
KANKAKEE       CLOUDY    68  61  77 S7        29.95F
MOLINE         CLOUDY    69  64  84 SE9       29.87S
MOUNT VERNON   CLEAR     66  59  77 NE3       29.98R
PITTSFIELD     CLOUDY    71  64  77 SE5       29.89S
QUINCY         CLEAR     71  64  78 SE9       29.86S
ROCKFORD       CLOUDY    67  59  75 S8        29.94S
$$


CITY           SKY/WX    TMP DP  RH WIND       PRES   REMARKS
BURLINGTON     CLOUDY    72  63  73 SE9       29.85S
CEDAR RAPIDS   CLOUDY    71  65  81 SE8       29.83R
DES MOINES     PTCLDY    78  72  81 E8        29.78R HX  80
KIRKSVILLE     CLEAR     73  68  84 S7        29.84R
OTTUMWA        MOCLDY    73  68  84 SE8       29.80S
ST LOUIS       PTCLDY    78  64  61 S8        29.92R HX  80
$$


CITY           SKY/WX    TMP DP  RH WIND       PRES   REMARKS
TERRE HAUTE    PTCLDY    62  58  86 NE5       30.00R
EVANSVILLE     CLEAR     69  61  75 CALM      29.99R
INDIANAPOLIS   CLOUDY    70  59  68 SW6       30.00R
LAFAYETTE      CLOUDY    69  59  70 S5        29.98S
MADISON        CLOUDY    69  61  75 S8        29.90S
MILWAUKEE      PTCLDY    68  59  73 SW8       29.92R
$$





USA.gov is the U.S. government's official web portal to all federal, state and local government web resources and services.